User: anonymous
Location: Unspecified
(0.0000°N, 0.0000°E)
Time: 16:06:28
(UTC+00:00)
Language:

Tiangong 1 - Orbit

View from above orbital plane
View from above orbital plane
View from above satellite
View from above satellite

Ground track
Ground track

The orbit data is extracted from the following two-line orbital elements,

1 37820U 11053A   14204.20847204  .00010226  00000-0  10881-3 0  2285
2 37820 042.7715 093.7203 0004546 224.8350 275.7750 15.64110645161717
Epoch (UTC): 23 July 2014 05:00:11
Eccentricity: 0.0004546
inclination: 42.7715°
perigee height: 373 km
apogee height: 379 km
right ascension of ascending node: 93.7203°
argument of perigee: 224.8350°
revolutions per day: 15.64110645
mean anomaly at epoch: 275.7750°
orbit number at epoch: 16171

The dashed part of the orbit path shows where the satellite is in the earth's shadow,  

DLR